Location: Recife
(8.0585°S, 34.8848°W)
Time: 09:24:54
(UTC-03:00)

Altair - Pass Details

Date: 20 April 2026
Orbit: 1501 x 1682 km, 47.2° (Epoch: 11 May)

Event Time Altitude Azimuth Distance (km) Brightness Sun altitude
Rises 20:45:47 0° 312° (NW) 4,667 10.5 -52.3°
Reaches altitude 10° 20:48:52 10° 309° (NW) 3,671 9.8 -53.0°
Enters shadow 20:51:45 23° 305° (NW) 2,784 9.1 -53.7°
